PAL359 ZBAA-RPLL

Flight info

Callsign PAL359
Flight time N/A
Altitude 35100
Route RUSDO9Z RUSDO W45 IPLEV B458 DADGA/K0837S1040 W37 KILUD/K0839S1100 W37 GUSIV/K0845S1070 W37 PEXID/K0846S1100 W37 OMBEB/K0839S1070 R473 NNX/K0839S1100 R473 WYN W18 NLG/K0837S1130 W18 TAMOT/N0452F370 B330 BIGEX A461 AVMUP W16 TADEL
Aircraft A321/M-SDE3FGHIRWY/LB1

Departure

Time N/A
Airport Beijing Capital International Airport (ZBAA)

Arrival

Time 2026-05-07 07:09
Airport Ninoy Aquino International Airport (RPLL)
Time Latitude Longitude Altitude Speed Heading
2026-05-07 06:42 16.05966 120.06773 27352 ft 487 kts 152°
2026-05-07 06:42 16.03013 120.08446 26815 ft 480 kts 151°
2026-05-07 06:42 16.00077 120.10112 26272 ft 473 kts 151°
2026-05-07 06:42 15.97219 120.11732 25732 ft 467 kts 151°
2026-05-07 06:43 15.94352 120.13357 25186 ft 461 kts 151°
2026-05-07 06:43 15.91570 120.14933 24645 ft 455 kts 151°
2026-05-07 06:43 15.88734 120.16539 24084 ft 450 kts 151°
2026-05-07 06:43 15.85999 120.18088 23538 ft 445 kts 151°
2026-05-07 06:44 15.83276 120.19629 22988 ft 441 kts 151°
2026-05-07 06:44 15.80593 120.21147 22446 ft 436 kts 150°
2026-05-07 06:44 15.77914 120.22663 21914 ft 432 kts 150°
2026-05-07 06:44 15.75274 120.24158 21380 ft 428 kts 150°
2026-05-07 06:45 15.72649 120.25645 20845 ft 424 kts 150°
2026-05-07 06:45 15.70044 120.27117 20300 ft 420 kts 150°
2026-05-07 06:45 15.67499 120.28554 19778 ft 416 kts 150°
2026-05-07 06:45 15.64919 120.30011 19289 ft 411 kts 150°
2026-05-07 06:46 15.62425 120.31418 19042 ft 402 kts 150°
2026-05-07 06:46 15.59949 120.32814 18808 ft 400 kts 150°
2026-05-07 06:46 15.57438 120.34232 18572 ft 399 kts 150°
2026-05-07 06:46 15.54876 120.35677 18249 ft 390 kts 150°
2026-05-07 06:47 15.52380 120.37083 17894 ft 382 kts 150°
2026-05-07 06:47 15.50065 120.38389 17573 ft 374 kts 150°
2026-05-07 06:47 15.47793 120.39669 17229 ft 367 kts 150°
2026-05-07 06:47 15.45579 120.40916 16930 ft 360 kts 150°
2026-05-07 06:48 15.43381 120.42131 16613 ft 353 kts 152°
2026-05-07 06:48 15.41149 120.43190 16302 ft 347 kts 156°
2026-05-07 06:48 15.38897 120.44061 15995 ft 341 kts 160°
2026-05-07 06:48 15.36648 120.44791 15766 ft 332 kts 161°
2026-05-07 06:49 15.34473 120.45480 15518 ft 324 kts 161°
2026-05-07 06:49 15.32322 120.46160 15150 ft 321 kts 161°
2026-05-07 06:49 15.30164 120.46844 14845 ft 320 kts 161°
2026-05-07 06:49 15.28000 120.47530 14564 ft 319 kts 161°
2026-05-07 06:50 15.25881 120.48202 14289 ft 317 kts 161°
2026-05-07 06:50 15.23778 120.48870 14001 ft 316 kts 161°
2026-05-07 06:50 15.21684 120.49535 13702 ft 314 kts 161°
2026-05-07 06:50 15.20265 120.49985 13550 ft 313 kts 161°
2026-05-07 06:51 15.17492 120.50867 13283 ft 312 kts 161°
2026-05-07 06:51 15.15391 120.51533 13095 ft 311 kts 161°
2026-05-07 06:51 15.13321 120.52192 12897 ft 310 kts 161°
2026-05-07 06:51 15.11272 120.52842 12706 ft 308 kts 161°
2026-05-07 06:52 15.09216 120.53494 12523 ft 307 kts 161°
2026-05-07 06:52 15.07172 120.54142 12331 ft 306 kts 161°
2026-05-07 06:52 15.05128 120.54791 12144 ft 306 kts 161°
2026-05-07 06:52 15.03082 120.55440 11965 ft 305 kts 161°
2026-05-07 06:53 15.01071 120.56078 11769 ft 304 kts 161°
2026-05-07 06:53 14.99015 120.56729 11591 ft 303 kts 161°
2026-05-07 06:53 14.96993 120.57369 11411 ft 302 kts 161°
2026-05-07 06:53 14.94970 120.58009 11230 ft 302 kts 160°
2026-05-07 06:54 14.92951 120.58648 11038 ft 300 kts 161°
2026-05-07 06:54 14.90945 120.59281 10864 ft 300 kts 161°
2026-05-07 06:54 14.88941 120.59915 10692 ft 299 kts 161°
2026-05-07 06:54 14.86933 120.60550 10488 ft 298 kts 161°
2026-05-07 06:55 14.84940 120.61180 10312 ft 298 kts 161°
2026-05-07 06:55 14.82957 120.61807 10127 ft 297 kts 161°
2026-05-07 06:55 14.80946 120.62443 9942 ft 296 kts 161°
2026-05-07 06:55 14.78983 120.63063 9738 ft 296 kts 161°
2026-05-07 06:56 14.76986 120.63694 9560 ft 295 kts 160°
2026-05-07 06:56 14.75007 120.64319 9365 ft 294 kts 160°
2026-05-07 06:56 14.73067 120.64932 9191 ft 293 kts 160°
2026-05-07 06:56 14.71088 120.65558 9000 ft 292 kts 161°
2026-05-07 06:57 14.69121 120.66162 8808 ft 292 kts 165°
2026-05-07 06:57 14.67103 120.66368 8609 ft 294 kts 179°
2026-05-07 06:57 14.65056 120.66195 8427 ft 294 kts 186°
2026-05-07 06:57 14.63030 120.65802 8238 ft 294 kts 190°
2026-05-07 06:58 14.61010 120.65364 8066 ft 293 kts 190°
2026-05-07 06:58 14.59025 120.64951 7889 ft 292 kts 189°
2026-05-07 06:58 14.57000 120.64553 7701 ft 291 kts 188°
2026-05-07 06:58 14.55033 120.64178 7540 ft 290 kts 188°
2026-05-07 06:59 14.53022 120.63800 7356 ft 290 kts 188°
2026-05-07 06:59 14.51029 120.63430 7151 ft 284 kts 188°
2026-05-07 06:59 14.49118 120.63075 6985 ft 274 kts 188°
2026-05-07 06:59 14.47258 120.62729 6827 ft 265 kts 188°
2026-05-07 07:00 14.45461 120.62472 6654 ft 255 kts 177°
2026-05-07 07:00 14.43769 120.62765 6517 ft 242 kts 156°
2026-05-07 07:00 14.42258 120.63533 6370 ft 240 kts 147°
2026-05-07 07:00 14.40798 120.64412 6199 ft 239 kts 146°
2026-05-07 07:01 14.39363 120.65289 6016 ft 236 kts 147°
2026-05-07 07:01 14.37969 120.66126 5838 ft 228 kts 147°
2026-05-07 07:01 14.36606 120.66933 5660 ft 222 kts 147°
2026-05-07 07:01 14.35271 120.67721 5488 ft 221 kts 146°
2026-05-07 07:02 14.34157 120.68769 5292 ft 215 kts 116°
2026-05-07 07:02 14.33818 120.70237 5126 ft 211 kts 85°
2026-05-07 07:02 14.34144 120.71716 4974 ft 210 kts 68°
2026-05-07 07:02 14.34775 120.73061 4945 ft 211 kts 61°
2026-05-07 07:03 14.35514 120.74371 4939 ft 211 kts 60°
2026-05-07 07:03 14.36270 120.75684 4869 ft 211 kts 60°
2026-05-07 07:03 14.36996 120.76958 4737 ft 199 kts 60°
2026-05-07 07:03 14.37666 120.78146 4471 ft 184 kts 61°
2026-05-07 07:04 14.38281 120.79250 4219 ft 172 kts 61°
2026-05-07 07:04 14.38882 120.80332 4006 ft 180 kts 61°
2026-05-07 07:04 14.39508 120.81467 3779 ft 183 kts 61°
2026-05-07 07:04 14.40138 120.82606 3547 ft 182 kts 62°
2026-05-07 07:05 14.40760 120.83732 3314 ft 181 kts 62°
2026-05-07 07:05 14.41383 120.84859 3085 ft 180 kts 62°
2026-05-07 07:05 14.42011 120.85995 2863 ft 180 kts 62°
2026-05-07 07:05 14.42623 120.87102 2652 ft 179 kts 62°
2026-05-07 07:06 14.43244 120.88223 2480 ft 178 kts 62°
2026-05-07 07:06 14.43858 120.89332 2256 ft 176 kts 62°
2026-05-07 07:06 14.44452 120.90399 2017 ft 165 kts 63°
2026-05-07 07:06 14.45003 120.91393 1796 ft 152 kts 61°
2026-05-07 07:07 14.45516 120.92316 1609 ft 148 kts 63°
2026-05-07 07:07 14.46034 120.93249 1439 ft 148 kts 64°
2026-05-07 07:07 14.46540 120.94164 1263 ft 147 kts 62°
2026-05-07 07:07 14.47049 120.95082 1088 ft 147 kts 63°
2026-05-07 07:08 14.47574 120.95990 864 ft 146 kts 63°
2026-05-07 07:08 14.48096 120.96899 705 ft 146 kts 64°
2026-05-07 07:08 14.48579 120.97822 550 ft 146 kts 65°
2026-05-07 07:08 14.49086 120.98749 346 ft 149 kts 62°
2026-05-07 07:09 14.49596 120.99665 174 ft 145 kts 63°
2026-05-07 07:09 14.50094 121.00557 46 ft 138 kts 64°
2026-05-07 07:09 14.50511 121.01323 43 ft 98 kts 62°
2026-05-07 07:09 14.50717 121.01665 51 ft 38 kts 50°
2026-05-07 07:10 14.50848 121.01782 52 ft 9 kts 23°
2026-05-07 07:10 14.50893 121.01773 52 ft 2 kts 313°
2026-05-07 07:10 14.50899 121.01757 53 ft 3 kts 274°
2026-05-07 07:10 14.50891 121.01722 54 ft 7 kts 246°
2026-05-07 07:11 14.50864 121.01671 56 ft 7 kts 240°
2026-05-07 07:11 14.50837 121.01620 57 ft 8 kts 240°
2026-05-07 07:11 14.50804 121.01561 57 ft 10 kts 240°
2026-05-07 07:11 14.50763 121.01489 56 ft 13 kts 240°
2026-05-07 07:12 14.50709 121.01392 53 ft 16 kts 240°
2026-05-07 07:12 14.50646 121.01278 47 ft 20 kts 240°
2026-05-07 07:12 14.50565 121.01131 38 ft 24 kts 240°
2026-05-07 07:12 14.50483 121.00984 38 ft 19 kts 241°
2026-05-07 07:13 14.50434 121.00897 38 ft 10 kts 240°
2026-05-07 07:13 14.50441 121.00848 38 ft 6 kts 315°
2026-05-07 07:13 14.50480 121.00833 39 ft 5 kts 350°
2026-05-07 07:13 14.50519 121.00819 40 ft 6 kts 331°
2026-05-07 07:14 14.50566 121.00793 40 ft 8 kts 332°
2026-05-07 07:14 14.50621 121.00758 39 ft 7 kts 306°
2026-05-07 07:14 14.50649 121.00707 40 ft 7 kts 298°
2026-05-07 07:14 14.50649 121.00672 41 ft 2 kts 225°
2026-05-07 07:15 14.50639 121.00669 41 ft 0 kts 193°
2026-05-07 07:15 14.50636 121.00668 41 ft 2 kts 193°
2026-05-07 07:15 14.50615 121.00661 42 ft 2 kts 204°
2026-05-07 07:15 14.50606 121.00656 43 ft 0 kts 205°
2026-05-07 07:16 14.50591 121.00649 43 ft 1 kts 205°
2026-05-07 07:16 14.50591 121.00648 43 ft 0 kts 206°